BREEZE-M DEB (TANK), 37871

Orbit data source: Space-Track

BREEZE-M DEB (TANK), 37871 is space debris in HEO originally from a launch on Fri, 04 Nov 2011 UTC launched from the Tyuratam Missile And Space Complex (TTMTR). Debris objects in space refer to the collection of defunct objects orbiting the Earth. Examples of debris include non-operational satellites, rocket bodies, and fragments generated from explosions, collisions, or faulty payload assembly.

Loading next visibility...
Identifier
37871, 2011-064E
Orbit
HEO
Country
Flag of CISCIS
Related business
Manufacturer
Khrunichev
Mission
Spacecraft
Bus & Motor
BRIZ TANK, Unknown motor
Mass
~1,000 kg wet, 1,000 kg dry
Launch date (UTC)
2011-11-04 (14 years ago)
Launch vehicle
Unknown
Launch site
Tyuratam Missile And Space Complex (TTMTR)
Object type
Payload
Rocket body
Debris
Shape & HBR
Torus, 2.0 m
Radar Cross Section
8.218 m², Large (>1 m²)

Expand to show TLE details & history
Last TLE update: 17 hours ago

TLE from 17 hours ago
0 BREEZE-M DEB (TANK)
1 37871U 11064E   25258.40421207  .00005211  00000-0  12716-2 0  9998
2 37871  52.5866 305.1854 5754187  18.0608 356.0325  4.40090081218883
Epoch: 2025-09-15T09:42Z
TLE epoch observation values (Epoch: 2025-09-15T09:42:03.922Z)
Latitude
0.00009°
Longitude
165.0665°
Altitude
416.561 km
Speed
9.592 km/s
True Right ascension
20h 20m 46s
True Declination
0° 00' 00"
Sunlit
Object was in full shadow at epoch
Visualization orbit readout
Latitude
Unknown
Longitude
Unknown
Altitude
Unknown
Speed
Unknown
Apparent Right ascension
Unknown
Apparent Declination
Unknown
Sunlit
N/A
Visualization observer readout
Local Sidereal Time
18:53:34
Azimuth
Unknown
Elevation
Unknown
Doppler factor
Unknown
Orbital elements
Apogee altitude
18,402.434 km
Perigee altitude
300.321 km
Semi-major axis
15,729.514 km
Eccentricity
0.57542
Inclination
52.5866°
RAAN
305.1854°
Arg. of periapsis
18.0608°
True anomaly
342.21105°
Mean anomaly
356.0325°
Eccentric anomaly
350.71058°
Mean motion
1.1002 °/min
Orbital period
327.21 mins
BSTAR
0.0012716
Loading maneuver chart data...
Computing Atmospheric mass density...
Loading historical data...
Loading historical data...
Loading historical data...
Loading historical data...
Loading historical data...
Loading historical data...
Loading historical data...

Documentation

Showing up to 5 results
|